GW3504 Weather Reports


Display with metric or nautical units.
time (UTC)temp
F
wind
direction
speed
MPH
gust
MPH
rain 1hr
in
rain 24hr
in
rain mn
in
humidity
%
barometer
mb
20260502202023 61 0 4.0 12.0 0.00 0.00 0.00 30 1020.7
20260502201545 62 308 2.0 8.0 0.00 0.00 0.00 33 1020.8
20260502201023 63 183 1.0 4.0 0.00 0.00 0.00 32 1020.8
20260502200526 63 117 0.0 4.0 0.00 0.00 0.00 34 1020.9
20260502200035 62 5 1.0 8.0 0.00 0.00 0.00 36 1020.8
20260502195522 62 22 1.0 10.0 0.00 0.00 0.00 34 1020.9
20260502195024 62 16 3.0 11.0 0.00 0.00 0.00 38 1020.9
20260502194535 62 0 3.0 11.0 0.00 0.00 0.00 36 1020.9
20260502194021 61 273 1.0 10.0 0.00 0.00 0.00 37 1021.0
20260502193524 61 300 1.0 5.0 0.00 0.00 0.00 38 1021.0
20260502193037 61 0 1.0 5.0 0.00 0.00 0.00 34 1021.0
20260502192523 62 350 2.0 8.0 0.00 0.00 0.00 38 1021.0
20260502192024 62 321 2.0 8.0 0.00 0.00 0.00 40 1021.2
20260502191546 61 0 1.0 7.0 0.00 0.00 0.00 37 1021.1
20260502191024 60 337 3.0 7.0 0.00 0.00 0.00 37 1021.2
20260502190524 60 342 2.0 7.0 0.00 0.00 0.00 35 1021.3
20260502190039 61 319 2.0 6.0 0.00 0.00 0.00 37 1021.3
20260502185523 62 310 0.0 6.0 0.00 0.00 0.00 36 1021.4
20260502185023 61 151 1.0 10.0 0.00 0.00 0.00 37 1021.4
20260502184545 60 275 2.0 10.0 0.00 0.00 0.00 38 1021.5
20260502184021 61 306 2.0 10.0 0.00 0.00 0.00 38 1021.5
20260502183523 60 0 1.0 10.0 0.00 0.00 0.00 39 1021.5
20260502183052 59 0 3.0 11.0 0.00 0.00 0.00 35 1021.6
20260502182522 60 57 3.0 11.0 0.00 0.00 0.00 34 1021.6
20260502182024 59 0 3.0 11.0 0.00 0.00 0.00 33 1021.7
20260502181542 59 0 1.0 5.0 0.00 0.00 0.00 37 1021.7
20260502181024 59 25 1.0 10.0 0.00 0.00 0.00 33 1021.8
20260502180526 59 340 1.0 10.0 0.00 0.00 0.00 37 1021.9
20260502164024 57 0 2.0 7.0 0.00 0.00 0.00 39 1022.7
20260502163522 57 293 1.0 7.0 0.00 0.00 0.00 40 1022.6
20260502163038 57 24 0.0 8.0 0.00 0.00 0.00 39 1022.6
20260502162524 56 172 2.0 12.0 0.00 0.00 0.00 38 1022.5
20260502162025 56 44 1.0 12.0 0.00 0.00 0.00 40 1022.6
20260502161534 57 355 2.0 8.0 0.00 0.00 0.00 42 1022.6
20260502161022 56 32 1.0 8.0 0.00 0.00 0.00 43 1022.6
20260502160527 56 0 0.0 8.0 0.00 0.00 0.00 42 1022.5
20260502152024 54 0 1.0 9.0 0.00 0.00 0.00 47 1022.5
20260502151538 54 0 2.0 9.0 0.00 0.00 0.00 48 1022.6
20260502151023 54 0 2.0 8.0 0.00 0.00 0.00 50 1022.7
20260502150521 54 16 2.0 8.0 0.00 0.00 0.00 50 1022.7
20260502130523 44 0 0.0 2.0 0.00 0.00 0.00 67 1022.3
20260502123523 42 0 0.0 3.0 0.00 0.00 0.00 69 1021.9
20260502123037 42 0 0.0 3.0 0.00 0.00 0.00 70 1021.9
20260502122524 41 0 0.0 2.0 0.00 0.00 0.00 71 1021.9
20260502122024 41 355 0.0 0.0 0.00 0.00 0.00 71 1021.8
20260502121545 41 0 0.0 0.0 0.00 0.00 0.00 72 1021.7
20260502121024 40 0 0.0 0.0 0.00 0.00 0.00 72 1021.6
20260502120523 40 0 0.0 0.0 0.00 0.00 0.00 72 1021.6
20260502115525 40 0 0.0 0.0 0.00 0.00 0.00 72 1021.3
20260502115024 40 0 0.0 0.0 0.00 0.00 0.00 72 1021.2
20260502114536 40 0 0.0 0.0 0.00 0.00 0.00 72 1021.1
20260502114022 40 0 0.0 0.0 0.00 0.00 0.00 71 1021.1
20260502113523 40 0 0.0 0.0 0.00 0.00 0.00 71 1021.2
20260502113038 40 0 0.0 0.0 0.00 0.00 0.00 71 1021.1
20260502112528 40 0 0.0 0.0 0.00 0.00 0.00 70 1021.0
20260502112025 40 0 0.0 0.0 0.00 0.00 0.00 69 1021.1
20260502111535 40 0 0.0 0.0 0.00 0.00 0.00 69 1021.0
20260502111023 40 0 0.0 3.0 0.00 0.00 0.00 69 1021.0
20260502110526 40 0 0.0 3.0 0.00 0.00 0.00 69 1020.9
20260502110036 40 0 0.0 3.0 0.00 0.00 0.00 70 1021.0
20260502105523 40 0 0.0 0.0 0.00 0.00 0.00 70 1021.0
20260502105023 40 0 0.0 0.0 0.00 0.00 0.00 70 1021.0
20260502104541 40 0 0.0 0.0 0.00 0.00 0.00 70 1021.0
20260502104025 40 0 0.0 0.0 0.00 0.00 0.00 70 1021.0
20260502103524 40 0 0.0 0.0 0.00 0.00 0.00 70 1021.0
20260502103042 40 0 0.0 0.0 0.00 0.00 0.00 69 1021.0
20260502102526 40 0 0.0 0.0 0.00 0.00 0.00 69 1020.9
20260502102026 40 0 0.0 0.0 0.00 0.00 0.00 68 1020.8
20260502101543 41 0 0.0 0.0 0.00 0.00 0.00 68 1020.7
20260502101023 41 0 0.0 0.0 0.00 0.00 0.00 67 1020.8
20260502100525 41 0 0.0 0.0 0.00 0.00 0.00 67 1020.7
20260502091024 44 0 0.0 3.0 0.00 0.00 0.00 59 1020.5
20260502090526 44 0 0.0 3.0 0.00 0.00 0.00 59 1020.5
20260502071025 46 5 1.0 5.0 0.00 0.00 0.00 53 1020.2
20260502070526 47 0 1.0 5.0 0.00 0.00 0.00 53 1020.2
20260502070034 47 0 0.0 5.0 0.00 0.00 0.00 53 1020.3
20260502065525 47 17 0.0 5.0 0.00 0.00 0.00 53 1020.3
20260502065029 47 0 0.0 5.0 0.00 0.00 0.00 52 1020.4
20260502064534 48 13 0.0 5.0 0.00 0.00 0.00 51 1020.5
20260502064025 48 11 1.0 5.0 0.00 0.00 0.00 51 1020.5
20260502063525 48 0 0.0 6.0 0.00 0.00 0.00 50 1020.4
20260502063036 48 355 1.0 6.0 0.00 0.00 0.00 50 1020.3
20260502062525 49 0 2.0 8.0 0.00 0.00 0.00 49 1020.4
20260502062024 49 355 2.0 8.0 0.00 0.00 0.00 49 1020.4
20260502061539 49 29 2.0 8.0 0.00 0.00 0.00 49 1020.4
20260502061023 49 32 3.0 8.0 0.00 0.00 0.00 49 1020.4
20260502060525 49 9 2.0 8.0 0.00 0.00 0.00 49 1020.4
20260502060035 49 24 0.0 8.0 0.00 0.00 0.00 49 1020.5
20260502055525 49 5 2.0 8.0 0.00 0.00 0.00 49 1020.4
20260502055028 49 0 0.0 5.0 0.00 0.00 0.00 49 1020.5
20260502054535 49 25 1.0 6.0 0.00 0.00 0.00 49 1020.4
20260502054023 49 12 2.0 6.0 0.00 0.00 0.00 49 1020.4
20260502053523 50 0 1.0 5.0 0.00 0.00 0.00 49 1020.4
20260502053040 50 0 2.0 6.0 0.00 0.00 0.00 49 1020.4
20260502052523 50 18 1.0 8.0 0.00 0.00 0.00 49 1020.3
20260502052025 50 360 2.0 9.0 0.00 0.00 0.00 49 1020.4
20260502051543 50 34 2.0 9.0 0.00 0.00 0.00 50 1020.3
20260502051024 50 28 2.0 9.0 0.00 0.00 0.00 50 1020.3
20260502050528 50 0 2.0 9.0 0.00 0.00 0.00 50 1020.2
20260502050039 50 37 1.0 10.0 0.00 0.00 0.00 51 1020.1
20260502045524 50 26 2.0 10.0 0.00 0.00 0.00 51 1020.2
20260502045027 50 19 1.0 8.0 0.00 0.00 0.00 51 1020.1
20260502044538 50 17 1.0 8.0 0.00 0.00 0.00 51 1020.1
20260502044026 50 20 2.0 8.0 0.00 0.00 0.00 51 1020.1
20260502043527 51 0 2.0 8.0 0.00 0.00 0.00 51 1020.0
20260502043036 51 28 2.0 8.0 0.00 0.00 0.00 50 1020.0
20260502042523 51 0 1.0 8.0 0.00 0.00 0.00 50 1019.9
20260502042024 51 9 1.0 8.0 0.00 0.00 0.00 50 1019.9
20260502041557 51 355 1.0 7.0 0.00 0.00 0.00 50 1019.9
20260502041023 51 0 1.0 8.0 0.00 0.00 0.00 51 1019.9
20260502040524 51 0 1.0 8.0 0.00 0.00 0.00 52 1019.8
20260502040044 51 0 1.0 8.0 0.00 0.00 0.00 52 1019.8
20260502035524 51 0 1.0 8.0 0.00 0.00 0.00 52 1019.9
20260502035027 52 9 1.0 3.0 0.00 0.00 0.00 52 1019.9
20260502034536 52 0 0.0 5.0 0.00 0.00 0.00 52 1019.8
20260502034025 52 17 0.0 5.0 0.00 0.00 0.00 52 1019.8
20260502033523 52 0 0.0 6.0 0.00 0.00 0.00 52 1019.7
20260502033050 53 0 0.0 7.0 0.00 0.00 0.00 52 1019.7
20260502032527 53 15 2.0 7.0 0.00 0.00 0.00 51 1019.8
20260502032025 53 5 0.0 7.0 0.00 0.00 0.00 52 1019.6
20260502031535 53 346 1.0 5.0 0.00 0.00 0.00 52 1019.6
20260502031024 53 0 1.0 4.0 0.00 0.00 0.00 52 1019.5
20260502030523 53 0 1.0 4.0 0.00 0.00 0.00 52 1019.4
20260502030037 54 0 0.0 4.0 0.00 0.00 0.00 53 1019.4
20260502025532 54 5 0.0 3.0 0.00 0.00 0.00 52 1019.3
20260502025025 54 5 0.0 3.0 0.00 0.00 0.00 52 1019.2
20260502024540 54 0 0.0 3.0 0.00 0.00 0.00 52 1019.0
20260502024025 54 0 0.0 3.0 0.00 0.00 0.00 51 1019.0
20260502023524 55 0 0.0 1.0 0.00 0.00 0.00 51 1018.8
20260502023035 55 0 0.0 1.0 0.00 0.00 0.00 50 1018.7
20260502022526 55 0 0.0 2.0 0.00 0.00 0.00 50 1018.6
20260502022027 55 0 0.0 2.0 0.00 0.00 0.00 50 1018.5
20260502021536 55 0 0.0 2.0 0.00 0.00 0.00 50 1018.4
20260502021026 56 0 0.0 2.0 0.00 0.00 0.00 49 1018.3
20260502020521 56 0 0.0 2.0 0.00 0.00 0.00 49 1018.2
20260502020038 56 0 0.0 2.0 0.00 0.00 0.00 49 1018.2
20260502015524 56 0 0.0 2.0 0.00 0.00 0.00 49 1018.1
20260502015026 57 0 0.0 3.0 0.00 0.00 0.00 48 1018.1
20260502014535 57 0 0.0 3.0 0.00 0.00 0.00 48 1018.1
20260502014023 57 0 0.0 3.0 0.00 0.00 0.00 48 1018.0
20260502013523 57 0 0.0 0.0 0.00 0.00 0.00 47 1017.9
20260502013035 58 0 0.0 2.0 0.00 0.00 0.00 46 1017.9
20260502012523 58 0 0.0 4.0 0.00 0.00 0.00 46 1017.7
20260502012021 58 0 0.0 4.0 0.00 0.00 0.00 45 1017.7
20260502011533 59 0 0.0 4.0 0.00 0.00 0.00 45 1017.6
20260502011021 59 355 0.0 3.0 0.00 0.00 0.00 44 1017.6
20260502010522 60 0 0.0 2.0 0.00 0.00 0.00 43 1017.6
20260502010038 60 0 0.0 2.0 0.00 0.00 0.00 43 1017.5
20260502005524 60 0 0.0 2.0 0.00 0.00 0.00 42 1017.4
20260502005025 61 0 0.0 4.0 0.00 0.00 0.00 42 1017.3
20260502004538 61 0 0.0 4.0 0.00 0.00 0.00 40 1017.3
20260502004027 61 5 1.0 4.0 0.00 0.00 0.00 40 1017.3
20260502003524 61 0 0.0 5.0 0.00 0.00 0.00 39 1017.2
20260502003036 62 283 1.0 6.0 0.00 0.00 0.00 39 1017.1
20260502002528 62 360 1.0 8.0 0.00 0.00 0.00 38 1017.0
20260502002023 63 0 0.0 8.0 0.00 0.00 0.00 38 1017.0
20260502001535 63 14 2.0 6.0 0.00 0.00 0.00 37 1016.9
20260502001025 63 0 1.0 11.0 0.00 0.00 0.00 38 1016.9
20260502000524 63 299 4.0 11.0 0.00 0.00 0.00 37 1016.9
20260502000034 63 352 3.0 11.0 0.00 0.00 0.00 36 1016.9
20260501235524 64 5 2.0 8.0 0.00 0.00 0.00 36 1016.9
20260501235024 64 330 2.0 9.0 0.00 0.00 0.00 36 1016.9
20260501234537 64 0 1.0 9.0 0.00 0.00 0.00 35 1016.7
20260501234022 64 276 2.0 9.0 0.00 0.00 0.00 35 1016.7
20260501233524 63 333 0.0 6.0 0.00 0.00 0.00 36 1016.9
20260501233035 63 315 0.0 9.0 0.00 0.00 0.00 36 1016.9
20260501232523 64 0 2.0 9.0 0.00 0.00 0.00 36 1016.8
20260501232025 64 9 1.0 6.0 0.00 0.00 0.00 36 1016.9
20260501231552 65 309 2.0 10.0 0.00 0.00 0.00 35 1016.8
20260501231023 65 0 2.0 10.0 0.00 0.00 0.00 36 1016.7
20260501230525 65 327 2.0 7.0 0.00 0.00 0.00 35 1016.7
20260501230035 64 0 1.0 12.0 0.00 0.00 0.00 36 1016.7
20260501225524 64 20 3.0 12.0 0.00 0.00 0.00 37 1016.8
20260501225026 64 308 2.0 9.0 0.00 0.00 0.00 37 1016.8
20260501224535 64 331 3.0 10.0 0.00 0.00 0.00 36 1016.8
20260501224023 64 322 3.0 11.0 0.00 0.00 0.00 37 1016.7
20260501223522 63 328 3.0 11.0 0.00 0.00 0.00 40 1016.8
20260501223100 63 0 3.0 8.0 0.00 0.00 0.00 37 1016.8
20260501222522 63 281 1.0 8.0 0.00 0.00 0.00 37 1016.7
20260501222023 63 5 3.0 8.0 0.00 0.00 0.00 38 1016.7
20260501221536 63 24 2.0 8.0 0.00 0.00 0.00 39 1016.7
20260501221023 63 0 1.0 8.0 0.00 0.00 0.00 38 1016.8
20260501220523 63 287 2.0 8.0 0.00 0.00 0.00 38 1016.7
20260501220036 63 313 3.0 10.0 0.00 0.00 0.00 38 1016.9
20260501215521 63 32 2.0 11.0 0.00 0.00 0.00 38 1016.7
20260501215027 63 346 4.0 11.0 0.00 0.00 0.00 36 1016.9
20260501214536 64 302 3.0 11.0 0.00 0.00 0.00 36 1017.0
20260501214023 64 338 3.0 10.0 0.00 0.00 0.00 37 1017.0
20260501213522 64 332 4.0 11.0 0.00 0.00 0.00 35 1017.1
20260501213036 65 319 4.0 11.0 0.00 0.00 0.00 34 1017.2
20260501212522 65 333 5.0 11.0 0.00 0.00 0.00 37 1017.2
20260501212023 63 293 2.0 10.0 0.00 0.00 0.00 35 1017.2
20260501211535 63 240 3.0 10.0 0.00 0.00 0.00 34 1017.4
20260501211024 63 314 2.0 10.0 0.00 0.00 0.00 34 1017.5
20260501210523 64 280 4.0 15.0 0.00 0.00 0.00 33 1017.5
20260501210037 65 320 4.0 15.0 0.00 0.00 0.00 31 1017.7
20260501205524 64 291 3.0 10.0 0.00 0.00 0.00 34 1017.7
20260501205022 63 283 3.0 16.0 0.00 0.00 0.00 33 1017.7
20260501204538 64 311 5.0 16.0 0.00 0.00 0.00 32 1017.8
20260501204023 65 355 4.0 10.0 0.00 0.00 0.00 32 1017.8
20260501203524 66 18 3.0 14.0 0.00 0.00 0.00 37 1017.9
20260501203037 64 340 5.0 14.0 0.00 0.00 0.00 34 1017.9
20260501202522 64 261 3.0 10.0 0.00 0.00 0.00 36 1018.1